Home   Weather   Santa Maria   Past weeks

Flag for Cabo Verde Past Weather in Santa Maria, Cabo Verde — Yesterday and Last 2 Weeks

Now
68 °F

Passing clouds.


Feels Like: 68 °F
Forecast: N/A
Wind: 18 mph from East

Location: Sal

Current Time: Jan 23, 2017 at 10:19:55 pm

Latest Report: Jan 23, 2017 at 10:00 pm


Visibility: N/A

Pressure: 30.09 "Hg

Humidity: 69%

Dew Point: 57 °F

Location of Santa MariaLocation

Past Weather in Santa Maria — Graph

°F

Santa Maria Temperature Yesterday

Maximum temperature yesterday: 77 °F (at 11:00 am)
Minimum temperature yesterday: 68 °F (at 12:00 am)
Average temperature yesterday: 71 °F

High & Low Weather Summary for the Past Weeks

 TemperatureHumidityPressure
High82 °F (Jan 9, 12:00 pm)83% (Jan 9, 8:00 am)30.12 "Hg (Jan 9, 8:00 am)
Low66 °F (Jan 14, 4:00 am)44% (Jan 17, 12:00 pm)29.86 "Hg (Jan 14, 4:00 pm)
Average72 °F66%29.98 "Hg
* Reported Jan 8 9:00 pm — Jan 23 9:00 pm, Santa Maria, Weather by CustomWeather, © 2017

Note: Actual official high and low records may vary slightly from our data, if they occured in-between our weather recording intervals... More about our weather records

Advertising

Santa Maria Weather History for the Previous 24 Hours

Scroll right to see more
 ConditionsComfort  
Time TempWeatherWind HumidityBarometerVisibility
9:00 pm
Mon, Jan 23
70 °FPartly cloudy.17 mph64%30.09 "HgN/A
8:00 pm70 °FPassing clouds.20 mph64%30.07 "HgN/A
7:00 pm70 °FPassing clouds.17 mph64%30.07 "HgN/A
6:00 pm72 °FPassing clouds.20 mph65%30.04 "HgN/A
5:00 pm73 °FPassing clouds.22 mph57%30.04 "HgN/A
4:00 pm75 °FPartly sunny.24 mph54%30.04 "HgN/A
3:00 pm75 °FPartly sunny.24 mph57%30.04 "HgN/A
12:00 pm77 °FPartly sunny.26 mph54%30.09 "HgN/A
11:00 am75 °FPartly sunny.25 mph57%30.12 "HgN/A
10:00 am73 °FPartly sunny.25 mph61%30.12 "HgN/A
9:00 am72 °FBroken clouds.24 mph65%30.09 "HgN/A
8:00 am70 °FPartly sunny.22 mph69%30.09 "HgN/A
7:00 am68 °FScattered clouds.21 mph69%30.07 "HgN/A
6:00 am68 °FScattered clouds.21 mph69%30.07 "HgN/A
5:00 am68 °FPassing clouds.15 mph73%30.07 "HgN/A
4:00 am68 °FPassing clouds.16 mph73%30.07 "HgN/A
3:00 am68 °FPassing clouds.18 mph73%30.07 "HgN/A
2:00 am68 °FPassing clouds.17 mph73%30.09 "HgN/A
1:00 am68 °FPassing clouds.17 mph73%30.09 "HgN/A
12:00 am68 °FPassing clouds.18 mph73%30.09 "HgN/A
11:00 pm
Sun, Jan 22
68 °FPassing clouds.18 mph73%30.09 "HgN/A
10:00 pm70 °FPartly cloudy.17 mph69%30.09 "HgN/A
Weather by CustomWeather, © 2017

See weather overviewHow to use our weather pages